| time (UTC) | temp C | wind direction | speed KPH | gust KPH | rain 1hr cm | rain 24hr cm | rain mn cm | humidity % | barometer mb |
| 20260508135452 | 12 | 290 | 6.4 | 11.3 | 0.00 | 0.00 | 0.00 | 60 | 1012.9 |
| 20260508134948 | 12 | 5 | 1.6 | 11.3 | 0.00 | 0.00 | 0.00 | 60 | 1012.9 |
| 20260508134445 | 12 | 247 | 8.0 | 9.7 | 0.00 | 0.00 | 0.00 | 59 | 1012.7 |
| 20260508133941 | 12 | 192 | 8.0 | 12.9 | 0.00 | 0.00 | 0.00 | 58 | 1012.7 |
| 20260508133439 | 12 | 305 | 4.8 | 9.7 | 0.00 | 0.00 | 0.00 | 60 | 1013.1 |
| 20260508132936 | 12 | 42 | 3.2 | 16.1 | 0.00 | 0.00 | 0.00 | 59 | 1012.9 |
| 20260508132434 | 12 | 204 | 3.2 | 9.7 | 0.00 | 0.00 | 0.00 | 59 | 1012.5 |
| 20260508131930 | 12 | 252 | 4.8 | 11.3 | 0.00 | 0.00 | 0.00 | 59 | 1012.5 |
| 20260508131426 | 11 | 114 | 4.8 | 8.0 | 0.00 | 0.00 | 0.00 | 61 | 1012.5 |
| 20260508130923 | 11 | 41 | 3.2 | 9.7 | 0.00 | 0.00 | 0.00 | 62 | 1012.7 |
| 20260508130420 | 11 | 226 | 3.2 | 12.9 | 0.00 | 0.00 | 0.00 | 64 | 1012.7 |
| 20260508125916 | 11 | 308 | 1.6 | 4.8 | 0.00 | 0.00 | 0.00 | 64 | 1012.7 |
| 20260508125412 | 10 | 297 | 3.2 | 8.0 | 0.00 | 0.00 | 0.00 | 66 | 1012.7 |
| 20260508124910 | 10 | 62 | 3.2 | 4.8 | 0.00 | 0.00 | 0.00 | 64 | 1012.7 |
| 20260508124407 | 10 | 212 | 3.2 | 4.8 | 0.00 | 0.00 | 0.00 | 65 | 1012.5 |
| 20260508123905 | 10 | 123 | 4.8 | 9.7 | 0.00 | 0.00 | 0.00 | 63 | 1012.5 |
| 20260508123403 | 10 | 292 | 3.2 | 9.7 | 0.00 | 0.00 | 0.00 | 63 | 1012.6 |
| 20260508122859 | 10 | 334 | 0.0 | 9.7 | 0.00 | 0.00 | 0.00 | 66 | 1012.4 |
| 20260508122356 | 10 | 270 | 1.6 | 3.2 | 0.00 | 0.00 | 0.00 | 66 | 1012.7 |
| 20260508121853 | 10 | 1 | 3.2 | 9.7 | 0.00 | 0.00 | 0.00 | 64 | 1012.5 |
| 20260508121352 | 10 | 116 | 4.8 | 9.7 | 0.00 | 0.00 | 0.00 | 64 | 1012.7 |
| 20260508120849 | 10 | 183 | 4.8 | 11.3 | 0.00 | 0.00 | 0.00 | 65 | 1012.5 |
| 20260508120347 | 10 | 311 | 1.6 | 3.2 | 0.00 | 0.00 | 0.00 | 67 | 1012.5 |
| 20260508115844 | 10 | 256 | 6.4 | 9.7 | 0.00 | 0.00 | 0.00 | 67 | 1012.6 |
| 20260508115341 | 10 | 74 | 1.6 | 4.8 | 0.00 | 0.00 | 0.00 | 66 | 1012.5 |
| 20260508114838 | 9 | 346 | 1.6 | 4.8 | 0.00 | 0.00 | 0.00 | 68 | 1012.7 |
| 20260508114335 | 8 | 18 | 1.6 | 4.8 | 0.00 | 0.00 | 0.00 | 68 | 1012.5 |
| 20260508113831 | 8 | 350 | 1.6 | 12.9 | 0.00 | 0.00 | 0.00 | 69 | 1012.4 |
| 20260508113330 | 8 | 346 | 1.6 | 4.8 | 0.00 | 0.00 | 0.00 | 69 | 1012.6 |
| 20260508112826 | 8 | 103 | 1.6 | 3.2 | 0.00 | 0.00 | 0.00 | 71 | 1012.4 |
| 20260508112323 | 7 | 322 | 0.0 | 1.6 | 0.00 | 0.00 | 0.00 | 75 | 1012.5 |
| 20260508111819 | 7 | 354 | 0.0 | 3.2 | 0.00 | 0.00 | 0.00 | 76 | 1012.3 |
| 20260508111317 | 7 | 327 | 0.0 | 1.6 | 0.00 | 0.00 | 0.00 | 76 | 1012.3 |
| 20260508110814 | 6 | 349 | 0.0 | 1.6 | 0.00 | 0.00 | 0.00 | 77 | 1012.3 |
| 20260508110311 | 6 | 350 | 0.0 | 0.0 | 0.00 | 0.00 | 0.00 | 77 | 1012.3 |
| 20260508105811 | 6 | 349 | 0.0 | 0.0 | 0.00 | 0.00 | 0.00 | 78 | 1012.1 |
| 20260508105308 | 6 | 354 | 0.0 | 1.6 | 0.00 | 0.00 | 0.00 | 78 | 1012.1 |
| 20260508104805 | 6 | 351 | 0.0 | 1.6 | 0.00 | 0.00 | 0.00 | 79 | 1012.0 |
| 20260508104302 | 5 | 336 | 0.0 | 0.0 | 0.00 | 0.00 | 0.00 | 81 | 1012.2 |
| 20260508103759 | 5 | 353 | 0.0 | 0.0 | 0.00 | 0.00 | 0.00 | 80 | 1011.9 |
| 20260508103256 | 5 | 347 | 0.0 | 0.0 | 0.00 | 0.00 | 0.00 | 80 | 1012.0 |
| 20260508102753 | 5 | 349 | 0.0 | 3.2 | 0.00 | 0.00 | 0.00 | 80 | 1012.1 |
| 20260508102251 | 5 | 353 | 0.0 | 3.2 | 0.00 | 0.00 | 0.00 | 81 | 1011.7 |
| 20260508101748 | 5 | 338 | 1.6 | 1.6 | 0.00 | 0.00 | 0.00 | 81 | 1011.8 |
| 20260508101246 | 5 | 346 | 0.0 | 1.6 | 0.00 | 0.00 | 0.00 | 81 | 1011.8 |
| 20260508100743 | 6 | 346 | 0.0 | 1.6 | 0.00 | 0.00 | 0.00 | 80 | 1011.7 |
| 20260508100241 | 5 | 350 | 0.0 | 1.6 | 0.00 | 0.00 | 0.00 | 80 | 1011.7 |
| 20260508095737 | 5 | 331 | 0.0 | 1.6 | 0.00 | 0.00 | 0.00 | 81 | 1011.8 |
| 20260508095235 | 5 | 339 | 1.6 | 1.6 | 0.00 | 0.00 | 0.00 | 81 | 1012.0 |
| 20260508094731 | 5 | 345 | 0.0 | 3.2 | 0.00 | 0.00 | 0.00 | 81 | 1011.9 |
| 20260508094228 | 5 | 344 | 1.6 | 3.2 | 0.00 | 0.00 | 0.00 | 82 | 1011.9 |
| 20260508093726 | 5 | 350 | 0.0 | 1.6 | 0.00 | 0.00 | 0.00 | 82 | 1011.8 |
| 20260508093223 | 5 | 333 | 0.0 | 1.6 | 0.00 | 0.00 | 0.00 | 82 | 1012.0 |
| 20260508092720 | 5 | 347 | 0.0 | 1.6 | 0.00 | 0.00 | 0.00 | 82 | 1012.1 |
| 20260508092218 | 5 | 311 | 1.6 | 1.6 | 0.00 | 0.00 | 0.00 | 81 | 1011.7 |
| 20260508091716 | 6 | 344 | 0.0 | 0.0 | 0.00 | 0.00 | 0.00 | 80 | 1011.9 |
| 20260508091212 | 6 | 350 | 0.0 | 1.6 | 0.00 | 0.00 | 0.00 | 79 | 1011.9 |
| 20260508090710 | 6 | 350 | 0.0 | 1.6 | 0.00 | 0.00 | 0.00 | 80 | 1012.1 |
| 20260508090208 | 6 | 344 | 0.0 | 1.6 | 0.00 | 0.00 | 0.00 | 79 | 1012.1 |
| 20260508085703 | 6 | 342 | 0.0 | 1.6 | 0.00 | 0.00 | 0.00 | 80 | 1012.1 |
| 20260508085201 | 6 | 345 | 0.0 | 0.0 | 0.00 | 0.00 | 0.00 | 79 | 1012.0 |
| 20260508084657 | 6 | 325 | 1.6 | 1.6 | 0.00 | 0.00 | 0.00 | 79 | 1012.1 |
| 20260508084154 | 6 | 347 | 0.0 | 1.6 | 0.00 | 0.00 | 0.00 | 78 | 1012.1 |
| 20260508083651 | 6 | 339 | 0.0 | 1.6 | 0.00 | 0.00 | 0.00 | 78 | 1012.0 |
| 20260508083149 | 6 | 347 | 0.0 | 0.0 | 0.00 | 0.00 | 0.00 | 77 | 1012.0 |
| 20260508082644 | 6 | 350 | 0.0 | 1.6 | 0.00 | 0.00 | 0.00 | 76 | 1012.0 |
| 20260508082142 | 7 | 322 | 0.0 | 1.6 | 0.00 | 0.00 | 0.00 | 76 | 1012.0 |
| 20260508081639 | 7 | 327 | 1.6 | 3.2 | 0.00 | 0.00 | 0.00 | 75 | 1012.0 |
| 20260508081135 | 7 | 341 | 1.6 | 4.8 | 0.00 | 0.00 | 0.00 | 75 | 1011.9 |
| 20260508080633 | 7 | 249 | 3.2 | 4.8 | 0.00 | 0.00 | 0.00 | 74 | 1012.0 |
| 20260508080131 | 7 | 311 | 1.6 | 3.2 | 0.00 | 0.00 | 0.00 | 76 | 1012.0 |
| 20260508075626 | 7 | 335 | 1.6 | 1.6 | 0.00 | 0.00 | 0.00 | 76 | 1011.8 |
| 20260508075124 | 7 | 333 | 1.6 | 3.2 | 0.00 | 0.00 | 0.00 | 76 | 1011.9 |
| 20260508074622 | 7 | 0 | 1.6 | 3.2 | 0.00 | 0.00 | 0.00 | 74 | 1011.9 |
| 20260508074118 | 7 | 347 | 0.0 | 0.0 | 0.00 | 0.00 | 0.00 | 76 | 1012.1 |
| 20260508073616 | 8 | 336 | 0.0 | 0.0 | 0.00 | 0.00 | 0.00 | 74 | 1012.3 |
| 20260508073114 | 8 | 341 | 0.0 | 0.0 | 0.00 | 0.00 | 0.00 | 74 | 1012.1 |
| 20260508072608 | 8 | 352 | 0.0 | 0.0 | 0.00 | 0.00 | 0.00 | 74 | 1012.3 |
| 20260508072106 | 8 | 349 | 0.0 | 0.0 | 0.00 | 0.00 | 0.00 | 73 | 1012.2 |
| 20260508071604 | 8 | 325 | 1.6 | 3.2 | 0.00 | 0.00 | 0.00 | 71 | 1012.5 |
| 20260508071102 | 8 | 351 | 0.0 | 0.0 | 0.00 | 0.00 | 0.00 | 78 | 1012.4 |
| 20260508070559 | 7 | 6 | 0.0 | 1.6 | 0.00 | 0.00 | 0.00 | 76 | 1012.6 |
| 20260508070057 | 7 | 347 | 0.0 | 1.6 | 0.00 | 0.00 | 0.00 | 77 | 1012.6 |
| 20260508065554 | 7 | 351 | 0.0 | 3.2 | 0.00 | 0.00 | 0.00 | 81 | 1012.7 |
| 20260508065053 | 7 | 349 | 0.0 | 0.0 | 0.00 | 0.00 | 0.00 | 84 | 1012.6 |
| 20260508064550 | 8 | 354 | 0.0 | 0.0 | 0.00 | 0.00 | 0.00 | 82 | 1012.6 |
| 20260508064047 | 8 | 357 | 0.0 | 0.0 | 0.00 | 0.00 | 0.00 | 78 | 1012.6 |
| 20260508063544 | 8 | 0 | 0.0 | 0.0 | 0.00 | 0.00 | 0.00 | 76 | 1012.5 |
| 20260508063043 | 8 | 350 | 0.0 | 1.6 | 0.00 | 0.00 | 0.00 | 69 | 1012.6 |
| 20260508062540 | 8 | 344 | 0.0 | 1.6 | 0.00 | 0.00 | 0.00 | 71 | 1012.8 |
| 20260508062036 | 8 | 345 | 0.0 | 1.6 | 0.00 | 0.00 | 0.00 | 72 | 1012.5 |
| 20260508061534 | 7 | 350 | 0.0 | 1.6 | 0.00 | 0.00 | 0.00 | 75 | 1012.5 |
| 20260508061031 | 7 | 346 | 0.0 | 0.0 | 0.00 | 0.00 | 0.00 | 74 | 1012.3 |
| 20260508060528 | 7 | 337 | 0.0 | 1.6 | 0.00 | 0.00 | 0.00 | 78 | 1012.3 |
| 20260508060026 | 7 | 352 | 0.0 | 0.0 | 0.00 | 0.00 | 0.00 | 81 | 1012.1 |
| 20260508055521 | 6 | 357 | 0.0 | 1.6 | 0.00 | 0.00 | 0.00 | 82 | 1012.1 |
| 20260508055018 | 6 | 356 | 0.0 | 0.0 | 0.00 | 0.00 | 0.00 | 85 | 1012.2 |
| 20260508054514 | 6 | 354 | 0.0 | 0.0 | 0.00 | 0.00 | 0.00 | 88 | 1012.2 |
| 20260508054012 | 6 | 356 | 0.0 | 0.0 | 0.00 | 0.00 | 0.00 | 89 | 1012.4 |
| 20260508053508 | 6 | 351 | 0.0 | 0.0 | 0.00 | 0.00 | 0.00 | 90 | 1012.4 |
| 20260508053007 | 6 | 354 | 0.0 | 0.0 | 0.00 | 0.00 | 0.00 | 90 | 1012.5 |
| 20260508052503 | 6 | 355 | 0.0 | 0.0 | 0.00 | 0.00 | 0.00 | 90 | 1012.1 |
| 20260508052000 | 6 | 356 | 0.0 | 0.0 | 0.00 | 0.00 | 0.00 | 90 | 1012.2 |
| 20260508051456 | 6 | 356 | 0.0 | 0.0 | 0.00 | 0.00 | 0.00 | 90 | 1012.4 |
| 20260508050952 | 6 | 359 | 0.0 | 0.0 | 0.00 | 0.00 | 0.00 | 90 | 1012.4 |
| 20260508050448 | 6 | 1 | 0.0 | 0.0 | 0.00 | 0.00 | 0.00 | 91 | 1012.5 |
| 20260508045945 | 6 | 357 | 0.0 | 0.0 | 0.00 | 0.00 | 0.00 | 91 | 1012.5 |
| 20260508045442 | 5 | 356 | 0.0 | 0.0 | 0.00 | 0.00 | 0.00 | 91 | 1012.7 |
| 20260508044939 | 5 | 354 | 0.0 | 0.0 | 0.00 | 0.00 | 0.00 | 91 | 1012.6 |
| 20260508044437 | 5 | 354 | 0.0 | 0.0 | 0.00 | 0.00 | 0.00 | 91 | 1012.8 |
| 20260508043931 | 5 | 351 | 0.0 | 0.0 | 0.00 | 0.00 | 0.00 | 91 | 1012.6 |
| 20260508043430 | 5 | 349 | 0.0 | 0.0 | 0.00 | 0.00 | 0.00 | 91 | 1012.5 |
| 20260508042925 | 5 | 349 | 0.0 | 0.0 | 0.00 | 0.00 | 0.00 | 91 | 1012.7 |
| 20260508042424 | 5 | 347 | 0.0 | 0.0 | 0.00 | 0.00 | 0.00 | 91 | 1012.6 |
| 20260508041920 | 5 | 351 | 0.0 | 0.0 | 0.00 | 0.00 | 0.00 | 90 | 1012.5 |
| 20260508041417 | 5 | 351 | 0.0 | 0.0 | 0.00 | 0.00 | 0.00 | 90 | 1012.5 |
| 20260508040914 | 5 | 351 | 0.0 | 0.0 | 0.00 | 0.00 | 0.00 | 90 | 1012.7 |
| 20260508040411 | 5 | 351 | 0.0 | 0.0 | 0.00 | 0.00 | 0.00 | 89 | 1012.5 |
| 20260508035909 | 5 | 355 | 0.0 | 0.0 | 0.00 | 0.00 | 0.00 | 89 | 1012.6 |
| 20260508035405 | 5 | 357 | 0.0 | 0.0 | 0.00 | 0.00 | 0.00 | 89 | 1012.5 |
| 20260508034902 | 5 | 359 | 0.0 | 0.0 | 0.00 | 0.00 | 0.00 | 89 | 1012.5 |
| 20260508034400 | 5 | 351 | 0.0 | 0.0 | 0.00 | 0.00 | 0.00 | 88 | 1012.4 |
| 20260508033856 | 5 | 351 | 0.0 | 0.0 | 0.00 | 0.00 | 0.00 | 88 | 1012.4 |
| 20260508033354 | 5 | 351 | 0.0 | 0.0 | 0.00 | 0.00 | 0.00 | 88 | 1012.4 |
| 20260508032852 | 5 | 351 | 0.0 | 0.0 | 0.00 | 0.00 | 0.00 | 87 | 1012.5 |
| 20260508032349 | 5 | 351 | 0.0 | 0.0 | 0.00 | 0.00 | 0.00 | 87 | 1012.5 |
| 20260508031845 | 5 | 347 | 0.0 | 0.0 | 0.00 | 0.00 | 0.00 | 87 | 1012.5 |
| 20260508031342 | 5 | 347 | 0.0 | 0.0 | 0.00 | 0.00 | 0.00 | 87 | 1012.5 |
| 20260508030838 | 5 | 351 | 0.0 | 0.0 | 0.00 | 0.00 | 0.00 | 86 | 1012.5 |
| 20260508030336 | 5 | 351 | 0.0 | 0.0 | 0.00 | 0.00 | 0.00 | 85 | 1012.5 |
| 20260508025832 | 5 | 351 | 0.0 | 0.0 | 0.00 | 0.00 | 0.00 | 85 | 1012.6 |
| 20260508025329 | 5 | 351 | 0.0 | 0.0 | 0.00 | 0.00 | 0.00 | 84 | 1012.4 |
| 20260508024826 | 5 | 354 | 0.0 | 0.0 | 0.00 | 0.00 | 0.00 | 83 | 1012.6 |
| 20260508024323 | 5 | 355 | 0.0 | 0.0 | 0.00 | 0.00 | 0.00 | 83 | 1012.6 |
| 20260508023820 | 5 | 355 | 0.0 | 0.0 | 0.00 | 0.00 | 0.00 | 83 | 1012.6 |
| 20260508023316 | 5 | 356 | 0.0 | 0.0 | 0.00 | 0.00 | 0.00 | 82 | 1012.3 |
| 20260508022813 | 5 | 356 | 0.0 | 0.0 | 0.00 | 0.00 | 0.00 | 81 | 1012.3 |
| 20260508022309 | 5 | 351 | 0.0 | 0.0 | 0.00 | 0.00 | 0.00 | 81 | 1012.5 |
| 20260508021806 | 6 | 351 | 0.0 | 0.0 | 0.00 | 0.00 | 0.00 | 80 | 1012.5 |
| 20260508021302 | 6 | 351 | 0.0 | 0.0 | 0.00 | 0.00 | 0.00 | 79 | 1012.4 |
| 20260508020758 | 6 | 350 | 0.0 | 0.0 | 0.00 | 0.00 | 0.00 | 78 | 1012.5 |
| 20260508020256 | 6 | 351 | 0.0 | 0.0 | 0.00 | 0.00 | 0.00 | 77 | 1012.5 |
| 20260508015753 | 6 | 351 | 0.0 | 0.0 | 0.00 | 0.00 | 0.00 | 78 | 1012.4 |
| 20260508015250 | 6 | 351 | 0.0 | 0.0 | 0.00 | 0.00 | 0.00 | 80 | 1012.5 |
| 20260508014747 | 7 | 349 | 0.0 | 0.0 | 0.00 | 0.00 | 0.00 | 81 | 1012.5 |
| 20260508014244 | 7 | 354 | 0.0 | 0.0 | 0.00 | 0.00 | 0.00 | 78 | 1012.5 |
| 20260508013739 | 7 | 345 | 0.0 | 0.0 | 0.00 | 0.00 | 0.00 | 75 | 1012.4 |
| 20260508013236 | 7 | 344 | 0.0 | 0.0 | 0.00 | 0.00 | 0.00 | 77 | 1012.4 |
| 20260508012734 | 7 | 348 | 0.0 | 0.0 | 0.00 | 0.00 | 0.00 | 76 | 1012.3 |
| 20260508012230 | 7 | 346 | 0.0 | 0.0 | 0.00 | 0.00 | 0.00 | 74 | 1012.5 |
| 20260508011729 | 7 | 346 | 0.0 | 0.0 | 0.00 | 0.00 | 0.00 | 72 | 1012.2 |
| 20260508011226 | 7 | 346 | 0.0 | 0.0 | 0.00 | 0.00 | 0.00 | 69 | 1012.2 |
| 20260508010722 | 8 | 341 | 0.0 | 1.6 | 0.00 | 0.00 | 0.00 | 67 | 1012.1 |
| 20260508010221 | 8 | 347 | 0.0 | 0.0 | 0.00 | 0.00 | 0.00 | 66 | 1012.2 |
| 20260508005717 | 8 | 345 | 0.0 | 0.0 | 0.00 | 0.00 | 0.00 | 66 | 1011.9 |
| 20260508005214 | 8 | 348 | 0.0 | 0.0 | 0.00 | 0.00 | 0.00 | 63 | 1012.2 |
| 20260508004710 | 8 | 346 | 0.0 | 0.0 | 0.00 | 0.00 | 0.00 | 62 | 1012.2 |
| 20260508004206 | 8 | 348 | 0.0 | 0.0 | 0.00 | 0.00 | 0.00 | 62 | 1012.1 |
| 20260508003703 | 9 | 347 | 0.0 | 0.0 | 0.00 | 0.00 | 0.00 | 60 | 1012.0 |
| 20260508003200 | 9 | 346 | 0.0 | 0.0 | 0.00 | 0.00 | 0.00 | 59 | 1011.9 |
| 20260508002656 | 10 | 345 | 0.0 | 0.0 | 0.00 | 0.00 | 0.00 | 57 | 1011.8 |
| 20260508002155 | 10 | 342 | 0.0 | 0.0 | 0.00 | 0.00 | 0.00 | 54 | 1012.0 |
| 20260508001649 | 11 | 335 | 1.6 | 1.6 | 0.00 | 0.00 | 0.00 | 53 | 1011.9 |
| 20260508001145 | 11 | 338 | 1.6 | 1.6 | 0.00 | 0.00 | 0.00 | 51 | 1011.7 |
| 20260508000642 | 11 | 338 | 0.0 | 0.0 | 0.00 | 0.00 | 0.00 | 50 | 1011.8 |
| 20260508000139 | 12 | 337 | 0.0 | 0.0 | 0.00 | 0.00 | 0.00 | 48 | 1011.7 |
| 20260507235636 | 12 | 313 | 1.6 | 3.2 | 0.00 | 0.00 | 0.00 | 45 | 1011.7 |
| 20260507235133 | 12 | 337 | 0.0 | 3.2 | 0.00 | 0.00 | 0.00 | 46 | 1012.0 |
| 20260507234630 | 13 | 344 | 0.0 | 1.6 | 0.00 | 0.00 | 0.00 | 43 | 1011.5 |
| 20260507234126 | 14 | 339 | 0.0 | 3.2 | 0.00 | 0.00 | 0.00 | 41 | 1011.8 |
| 20260507233623 | 14 | 338 | 0.0 | 1.6 | 0.00 | 0.00 | 0.00 | 42 | 1011.5 |
| 20260507233122 | 13 | 334 | 0.0 | 3.2 | 0.00 | 0.00 | 0.00 | 41 | 1011.7 |
| 20260507232618 | 13 | 336 | 1.6 | 4.8 | 0.00 | 0.00 | 0.00 | 42 | 1011.7 |
| 20260507232115 | 13 | 334 | 4.8 | 11.3 | 0.00 | 0.00 | 0.00 | 43 | 1011.7 |
| 20260507231611 | 13 | 286 | 3.2 | 9.7 | 0.00 | 0.00 | 0.00 | 41 | 1011.7 |
| 20260507231109 | 13 | 270 | 3.2 | 4.8 | 0.00 | 0.00 | 0.00 | 41 | 1011.7 |
| 20260507230605 | 14 | 291 | 3.2 | 3.2 | 0.00 | 0.00 | 0.00 | 41 | 1011.5 |
| 20260507225557 | 14 | 244 | 4.8 | 11.3 | 0.00 | 0.00 | 0.00 | 39 | 1011.6 |
| 20260507225054 | 14 | 329 | 1.6 | 3.2 | 0.00 | 0.00 | 0.00 | 39 | 1011.6 |
| 20260507224549 | 13 | 325 | 0.0 | 8.0 | 0.00 | 0.00 | 0.00 | 38 | 1011.7 |
| 20260507224046 | 14 | 315 | 4.8 | 12.9 | 0.00 | 0.00 | 0.00 | 39 | 1011.6 |
| 20260507223542 | 14 | 319 | 4.8 | 9.7 | 0.00 | 0.00 | 0.00 | 38 | 1011.9 |
| 20260507223039 | 14 | 342 | 3.2 | 8.0 | 0.00 | 0.00 | 0.00 | 39 | 1011.7 |
| 20260507222536 | 13 | 312 | 3.2 | 4.8 | 0.00 | 0.00 | 0.00 | 39 | 1011.8 |
| 20260507222033 | 13 | 329 | 1.6 | 9.7 | 0.00 | 0.00 | 0.00 | 39 | 1011.7 |
| 20260507221529 | 13 | 329 | 1.6 | 4.8 | 0.00 | 0.00 | 0.00 | 41 | 1011.8 |
| 20260507221026 | 13 | 308 | 6.4 | 8.0 | 0.00 | 0.00 | 0.00 | 40 | 1011.9 |
| 20260507220523 | 15 | 305 | 3.2 | 9.7 | 0.00 | 0.00 | 0.00 | 39 | 1011.7 |
| 20260507220021 | 14 | 333 | 1.6 | 8.0 | 0.00 | 0.00 | 0.00 | 40 | 1011.7 |
| 20260507215516 | 14 | 265 | 9.7 | 16.1 | 0.00 | 0.00 | 0.00 | 39 | 1011.6 |
| 20260507215015 | 14 | 10 | 6.4 | 9.7 | 0.00 | 0.00 | 0.00 | 40 | 1011.7 |
| 20260507214512 | 14 | 324 | 4.8 | 20.9 | 0.00 | 0.00 | 0.00 | 41 | 1011.5 |
| 20260507214007 | 15 | 293 | 4.8 | 12.9 | 0.00 | 0.00 | 0.00 | 39 | 1011.6 |
| 20260507213504 | 14 | 191 | 3.2 | 8.0 | 0.00 | 0.00 | 0.00 | 40 | 1011.5 |
| 20260507213001 | 13 | 274 | 12.9 | 16.1 | 0.00 | 0.00 | 0.00 | 42 | 1011.6 |
| 20260507212456 | 12 | 312 | 4.8 | 11.3 | 0.00 | 0.00 | 0.00 | 44 | 1011.6 |
| 20260507211954 | 13 | 329 | 1.6 | 12.9 | 0.00 | 0.00 | 0.00 | 42 | 1011.6 |
| 20260507211450 | 13 | 352 | 3.2 | 12.9 | 0.00 | 0.00 | 0.00 | 41 | 1011.4 |
| 20260507210947 | 13 | 30 | 1.6 | 12.9 | 0.00 | 0.00 | 0.00 | 43 | 1011.3 |
| 20260507210444 | 13 | 346 | 4.8 | 14.5 | 0.00 | 0.00 | 0.00 | 44 | 1011.3 |
| 20260507205940 | 13 | 310 | 8.0 | 11.3 | 0.00 | 0.00 | 0.00 | 43 | 1011.3 |
| 20260507205438 | 14 | 328 | 4.8 | 9.7 | 0.00 | 0.00 | 0.00 | 41 | 1011.2 |
| 20260507204934 | 14 | 279 | 11.3 | 12.9 | 0.00 | 0.00 | 0.00 | 43 | 1011.2 |
| 20260507204430 | 13 | 345 | 1.6 | 11.3 | 0.00 | 0.00 | 0.00 | 43 | 1011.1 |
| 20260507203928 | 14 | 297 | 6.4 | 11.3 | 0.00 | 0.00 | 0.00 | 42 | 1011.1 |
| 20260507203426 | 13 | 305 | 4.8 | 14.5 | 0.00 | 0.00 | 0.00 | 42 | 1011.1 |
| 20260507202922 | 14 | 261 | 14.5 | 16.1 | 0.00 | 0.00 | 0.00 | 43 | 1011.2 |
| 20260507202419 | 13 | 275 | 4.8 | 17.7 | 0.00 | 0.00 | 0.00 | 43 | 1011.2 |
| 20260507201914 | 13 | 6 | 3.2 | 8.0 | 0.00 | 0.00 | 0.00 | 44 | 1011.1 |
| 20260507201410 | 13 | 285 | 6.4 | 11.3 | 0.00 | 0.00 | 0.00 | 45 | 1011.1 |
| 20260507200907 | 14 | 300 | 6.4 | 14.5 | 0.00 | 0.00 | 0.00 | 46 | 1011.4 |
| 20260507200402 | 15 | 298 | 6.4 | 14.5 | 0.00 | 0.00 | 0.00 | 46 | 1011.4 |
| 20260507195858 | 15 | 284 | 4.8 | 11.3 | 0.00 | 0.00 | 0.00 | 46 | 1011.1 |
| 20260507195356 | 13 | 333 | 3.2 | 9.7 | 0.00 | 0.00 | 0.00 | 46 | 1011.0 |
| 20260507194853 | 13 | 305 | 9.7 | 17.7 | 0.00 | 0.00 | 0.00 | 44 | 1011.1 |
| 20260507194349 | 14 | 325 | 1.6 | 8.0 | 0.00 | 0.00 | 0.00 | 45 | 1011.1 |
| 20260507193846 | 15 | 292 | 11.3 | 17.7 | 0.00 | 0.00 | 0.00 | 45 | 1011.4 |
| 20260507193343 | 14 | 299 | 4.8 | 12.9 | 0.00 | 0.00 | 0.00 | 43 | 1011.3 |
| 20260507192839 | 13 | 145 | 4.8 | 14.5 | 0.00 | 0.00 | 0.00 | 46 | 1011.1 |
| 20260507192336 | 13 | 280 | 3.2 | 8.0 | 0.00 | 0.00 | 0.00 | 45 | 1011.2 |
| 20260507191832 | 15 | 318 | 9.7 | 22.5 | 0.00 | 0.00 | 0.00 | 46 | 1011.5 |
| 20260507191328 | 14 | 216 | 9.7 | 12.9 | 0.00 | 0.00 | 0.00 | 45 | 1011.4 |
| 20260507190825 | 13 | 7 | 6.4 | 14.5 | 0.00 | 0.00 | 0.00 | 43 | 1011.2 |
| 20260507190324 | 14 | 229 | 11.3 | 14.5 | 0.00 | 0.00 | 0.00 | 43 | 1011.2 |
| 20260507185822 | 13 | 346 | 4.8 | 20.9 | 0.00 | 0.00 | 0.00 | 45 | 1011.6 |
| 20260507185319 | 13 | 261 | 16.1 | 20.9 | 0.00 | 0.00 | 0.00 | 44 | 1011.2 |
| 20260507184816 | 14 | 71 | 9.7 | 12.9 | 0.00 | 0.00 | 0.00 | 42 | 1011.5 |
| 20260507184314 | 14 | 235 | 0.0 | 4.8 | 0.00 | 0.00 | 0.00 | 46 | 1011.2 |
| 20260507183810 | 13 | 337 | 4.8 | 9.7 | 0.00 | 0.00 | 0.00 | 46 | 1011.3 |
| 20260507183308 | 13 | 243 | 8.0 | 11.3 | 0.00 | 0.00 | 0.00 | 45 | 1011.5 |
| 20260507182805 | 14 | 258 | 6.4 | 11.3 | 0.00 | 0.00 | 0.00 | 43 | 1011.5 |
| 20260507182300 | 13 | 165 | 4.8 | 16.1 | 0.00 | 0.00 | 0.00 | 46 | 1011.4 |
| 20260507181757 | 14 | 313 | 9.7 | 16.1 | 0.00 | 0.00 | 0.00 | 42 | 1011.4 |
| 20260507181253 | 13 | 30 | 3.2 | 8.0 | 0.00 | 0.00 | 0.00 | 45 | 1011.3 |
| 20260507180750 | 13 | 325 | 4.8 | 8.0 | 0.00 | 0.00 | 0.00 | 50 | 1011.6 |
| 20260507180247 | 13 | 300 | 3.2 | 14.5 | 0.00 | 0.00 | 0.00 | 47 | 1011.6 |
| 20260507175742 | 13 | 289 | 14.5 | 16.1 | 0.00 | 0.00 | 0.00 | 42 | 1011.6 |
| 20260507175239 | 13 | 220 | 4.8 | 12.9 | 0.00 | 0.00 | 0.00 | 45 | 1011.7 |
| 20260507174737 | 13 | 340 | 4.8 | 11.3 | 0.00 | 0.00 | 0.00 | 44 | 1011.7 |
| 20260507174235 | 13 | 287 | 3.2 | 9.7 | 0.00 | 0.00 | 0.00 | 45 | 1011.7 |
| 20260507173732 | 13 | 239 | 11.3 | 27.4 | 0.00 | 0.00 | 0.00 | 46 | 1011.8 |
| 20260507173229 | 13 | 257 | 8.0 | 12.9 | 0.00 | 0.00 | 0.00 | 42 | 1011.9 |
| 20260507172725 | 13 | 295 | 6.4 | 14.5 | 0.00 | 0.00 | 0.00 | 48 | 1012.0 |
| 20260507172223 | 13 | 358 | 3.2 | 16.1 | 0.00 | 0.00 | 0.00 | 44 | 1012.1 |
| 20260507171722 | 12 | 198 | 14.5 | 25.7 | 0.00 | 0.00 | 0.00 | 43 | 1012.2 |
| 20260507171220 | 12 | 291 | 4.8 | 16.1 | 0.00 | 0.00 | 0.00 | 46 | 1012.2 |
| 20260507170717 | 12 | 239 | 9.7 | 17.7 | 0.00 | 0.00 | 0.00 | 40 | 1012.0 |
| 20260507170214 | 12 | 281 | 11.3 | 16.1 | 0.00 | 0.00 | 0.00 | 44 | 1012.3 |
| 20260507165709 | 12 | 255 | 8.0 | 17.7 | 0.00 | 0.00 | 0.00 | 45 | 1012.1 |
| 20260507165206 | 12 | 306 | 6.4 | 16.1 | 0.00 | 0.00 | 0.00 | 47 | 1012.3 |
| 20260507164702 | 12 | 285 | 9.7 | 12.9 | 0.00 | 0.00 | 0.00 | 43 | 1012.2 |
| 20260507164159 | 12 | 243 | 6.4 | 11.3 | 0.00 | 0.00 | 0.00 | 48 | 1012.3 |
| 20260507163656 | 12 | 322 | 8.0 | 12.9 | 0.00 | 0.00 | 0.00 | 52 | 1012.4 |
| 20260507163154 | 12 | 239 | 9.7 | 17.7 | 0.00 | 0.00 | 0.00 | 48 | 1012.1 |
| 20260507162650 | 12 | 256 | 12.9 | 16.1 | 0.00 | 0.00 | 0.00 | 47 | 1012.1 |
| 20260507162146 | 12 | 108 | 3.2 | 9.7 | 0.00 | 0.00 | 0.00 | 47 | 1012.4 |
| 20260507161642 | 12 | 271 | 8.0 | 16.1 | 0.00 | 0.00 | 0.00 | 49 | 1012.2 |
| 20260507161139 | 12 | 322 | 4.8 | 14.5 | 0.00 | 0.00 | 0.00 | 49 | 1012.3 |
| 20260507160635 | 12 | 346 | 8.0 | 20.9 | 0.00 | 0.00 | 0.00 | 44 | 1012.3 |
| 20260507160132 | 12 | 238 | 8.0 | 12.9 | 0.00 | 0.00 | 0.00 | 50 | 1012.3 |
| 20260507155628 | 12 | 241 | 8.0 | 12.9 | 0.00 | 0.00 | 0.00 | 49 | 1012.2 |
| 20260507155125 | 12 | 281 | 4.8 | 16.1 | 0.00 | 0.00 | 0.00 | 46 | 1012.1 |
| 20260507154621 | 12 | 188 | 4.8 | 9.7 | 0.00 | 0.00 | 0.00 | 46 | 1012.3 |
| 20260507154119 | 12 | 324 | 4.8 | 14.5 | 0.00 | 0.00 | 0.00 | 49 | 1012.2 |
| 20260507153615 | 12 | 289 | 8.0 | 11.3 | 0.00 | 0.00 | 0.00 | 45 | 1012.1 |
| 20260507153112 | 12 | 313 | 8.0 | 14.5 | 0.00 | 0.00 | 0.00 | 46 | 1012.1 |
| 20260507152608 | 12 | 242 | 6.4 | 11.3 | 0.00 | 0.00 | 0.00 | 45 | 1012.0 |
| 20260507152104 | 11 | 9 | 4.8 | 11.3 | 0.00 | 0.00 | 0.00 | 49 | 1012.1 |
| 20260507151600 | 12 | 272 | 8.0 | 20.9 | 0.00 | 0.00 | 0.00 | 48 | 1012.1 |
| 20260507151057 | 12 | 238 | 6.4 | 9.7 | 0.00 | 0.00 | 0.00 | 49 | 1012.2 |
| 20260507150554 | 11 | 256 | 12.9 | 14.5 | 0.00 | 0.00 | 0.00 | 48 | 1012.1 |
| 20260507150051 | 11 | 250 | 6.4 | 12.9 | 0.00 | 0.00 | 0.00 | 51 | 1012.2 |
| 20260507145546 | 11 | 309 | 1.6 | 9.7 | 0.00 | 0.00 | 0.00 | 49 | 1012.2 |
| 20260507145044 | 11 | 313 | 6.4 | 12.9 | 0.00 | 0.00 | 0.00 | 50 | 1012.4 |
| 20260507144540 | 11 | 345 | 3.2 | 9.7 | 0.00 | 0.00 | 0.00 | 50 | 1012.4 |
| 20260507144038 | 11 | 238 | 8.0 | 16.1 | 0.00 | 0.00 | 0.00 | 54 | 1012.3 |
| 20260507143535 | 11 | 299 | 4.8 | 9.7 | 0.00 | 0.00 | 0.00 | 53 | 1012.1 |
| 20260507143032 | 11 | 356 | 1.6 | 9.7 | 0.00 | 0.00 | 0.00 | 56 | 1012.3 |
| 20260507142527 | 11 | 109 | 3.2 | 9.7 | 0.00 | 0.00 | 0.00 | 55 | 1012.3 |
| 20260507142025 | 11 | 250 | 8.0 | 12.9 | 0.00 | 0.00 | 0.00 | 56 | 1012.4 |
| 20260507141520 | 11 | 239 | 8.0 | 9.7 | 0.00 | 0.00 | 0.00 | 57 | 1012.4 |
| 20260507141017 | 11 | 280 | 6.4 | 9.7 | 0.00 | 0.00 | 0.00 | 57 | 1012.4 |
| 20260507140514 | 11 | 228 | 4.8 | 8.0 | 0.00 | 0.00 | 0.00 | 58 | 1012.5 |
| 20260507140012 | 10 | 313 | 3.2 | 8.0 | 0.00 | 0.00 | 0.00 | 60 | 1012.4 |